Glasgow, United Kingdom

10:14 PM BST on June 28, 2017 (GMT +0100)
Glasgow

Weather History for EGPF - December, 2012

Change the Weather History Date:

Friday, December 21, 2012

  Actual Average Record
Temperature  
Mean Temperature 42 °F -  
Max Temperature 42 °F 43 °F 53 °F (2008)
Min Temperature 41 °F 33 °F 17 °F (2010)
Degree Days  
Heating Degree Days 24    
Moisture  
Dew Point 39 °F    
Average Humidity 92    
Maximum Humidity 93    
Minimum Humidity 87    
Precipitation  
Precipitation 0.00 in - - ()
Sea Level Pressure  
Sea Level Pressure 29.77 in    
Wind  
Wind Speed 9 mph ()    
Max Wind Speed 14 mph    
Max Gust Speed -    
Visibility 6.1 miles    
Events Rain    
Averages and records for this station are not official NWS values.
T = Trace of Precipitation, MM = Missing Value Source: Averaged Metar Reports

Daily Weather History Graph

Daily Weather History Graph

Search for Another Location

Airport or City:

Trip Planner

Search our weather history database for the weather conditions in past years. The results will help you decide how hot, cold, wet, or windy it might be!

Date:

Astronomy

Dec. 21, 2012 Rise Set
Actual Time 8:46 AM GMT 3:45 PM GMT
Civil Twilight 7:59 AM GMT 4:32 PM GMT
Nautical Twilight 7:10 AM GMT 5:21 PM GMT
Astronomical Twilight 6:24 AM GMT 6:07 PM GMT
Moon 12:12 PM GMT (12/21) 1:28 AM GMT (12/21)
Length of Visible Light 8h 33m
Length of Day
6h 58m
Waxing Gibbous, 62% of the Moon is Illuminated
Dec 21
Waxing Gibbous
Dec 28
Full
Jan 5
Last Quarter
Jan 11
New
Jan 18
First Quarter

Hourly Weather History & Observations

Time (GMT) Temp. Windchill Dew Point Humidity Pressure Visibility Wind Dir Wind Speed Gust Speed Precip Events Conditions
12:20 AM 41.0 °F 33.5 °F 39.2 °F 93% 29.62 in 6.2 mi ENE 13.8 mph - N/A Rain Light Rain
12:50 AM 41.0 °F 33.5 °F 39.2 °F 93% 29.62 in 5.6 mi ENE 13.8 mph - N/A Rain Light Rain
1:20 AM 41.0 °F 33.5 °F 39.2 °F 93% 29.62 in 4.3 mi ENE 13.8 mph - N/A Rain Light Rain
1:50 AM 41.0 °F 33.9 °F 39.2 °F 93% 29.62 in 6.2 mi ENE 12.7 mph - N/A Rain Light Rain
2:20 AM 41.0 °F 33.5 °F 39.2 °F 93% 29.65 in 6.2 mi ENE 13.8 mph - N/A Rain Light Rain
2:50 AM 41.0 °F 33.5 °F 39.2 °F 93% 29.65 in 6.2 mi ENE 13.8 mph - N/A Rain Light Rain
3:20 AM 41.0 °F 33.9 °F 37.4 °F 87% 29.65 in 6.2 mi ENE 12.7 mph - N/A Rain Light Rain
3:50 AM 41.0 °F 33.9 °F 37.4 °F 87% 29.65 in 6.2 mi ENE 12.7 mph - N/A Rain Light Rain
4:20 AM 41.0 °F 33.9 °F 37.4 °F 87% 29.65 in 6.2 mi ENE 12.7 mph - N/A Rain Light Rain
4:50 AM 41.0 °F 34.3 °F 37.4 °F 87% 29.68 in 6.2 mi ENE 11.5 mph - N/A Rain Light Rain
5:20 AM 41.0 °F 34.7 °F 37.4 °F 87% 29.68 in 6.2 mi ENE 10.4 mph - N/A Rain Light Rain
5:50 AM 41.0 °F 35.8 °F 37.4 °F 87% 29.68 in 6.2 mi ENE 8.1 mph - N/A Rain Light Rain
6:20 AM 41.0 °F 35.2 °F 37.4 °F 87% 29.68 in 5.6 mi ENE 9.2 mph - N/A Rain Light Rain
6:50 AM 41.0 °F 35.8 °F 37.4 °F 87% 29.71 in 5.6 mi ENE 8.1 mph - N/A Rain Light Rain
7:20 AM 41.0 °F 36.4 °F 39.2 °F 93% 29.71 in 6.2 mi ENE 6.9 mph - N/A Rain Light Rain
7:50 AM 41.0 °F 36.4 °F 39.2 °F 93% 29.74 in 6.2 mi ENE 6.9 mph - N/A Rain Light Rain
8:20 AM 41.0 °F 36.4 °F 39.2 °F 93% 29.74 in 6.2 mi ENE 6.9 mph - N/A Rain Light Rain
8:50 AM 41.0 °F 37.1 °F 39.2 °F 93% 29.77 in 6.2 mi East 5.8 mph - N/A   Mostly Cloudy
9:20 AM 41.0 °F 37.1 °F 39.2 °F 93% 29.77 in 6.2 mi East 5.8 mph - N/A   Mostly Cloudy
9:50 AM 41.0 °F 35.8 °F 39.2 °F 93% 29.77 in 6.2 mi ENE 8.1 mph - N/A   Mostly Cloudy
10:20 AM 41.0 °F 34.7 °F 39.2 °F 93% 29.80 in 6.2 mi ENE 10.4 mph - N/A Rain Light Rain
10:50 AM 41.0 °F 35.2 °F 39.2 °F 93% 29.80 in 6.2 mi ENE 9.2 mph - N/A Rain Light Rain
11:20 AM 41.0 °F 35.2 °F 39.2 °F 93% 29.80 in 6.2 mi ENE 9.2 mph - N/A Rain Light Rain
11:50 AM 41.0 °F 36.4 °F 39.2 °F 93% 29.80 in 6.2 mi ENE 6.9 mph - N/A Rain Light Rain
12:20 PM 41.0 °F 36.4 °F 39.2 °F 93% 29.83 in 5.6 mi ENE 6.9 mph - N/A Rain Light Rain
12:50 PM 42.8 °F 38.6 °F 41.0 °F 93% 29.83 in 5.6 mi ENE 6.9 mph - N/A Rain Light Rain
1:20 PM 42.8 °F 40.1 °F 41.0 °F 93% 29.83 in 6.2 mi ENE 4.6 mph - N/A Rain Light Rain
1:50 PM 42.8 °F 38.6 °F 41.0 °F 93% 29.83 in 5.6 mi ENE 6.9 mph - N/A Rain Light Rain
2:20 PM 42.8 °F 38.6 °F 41.0 °F 93% 29.83 in 5.6 mi ENE 6.9 mph - N/A Rain Light Rain
2:50 PM 42.8 °F 38.0 °F 41.0 °F 93% 29.83 in 6.2 mi ENE 8.1 mph - N/A   Mostly Cloudy
3:20 PM 41.0 °F 35.8 °F 39.2 °F 93% 29.83 in 6.2 mi ENE 8.1 mph - N/A   Mostly Cloudy
3:50 PM 41.0 °F 35.8 °F 39.2 °F 93% 29.83 in 6.2 mi ENE 8.1 mph - N/A   Mostly Cloudy
4:20 PM 41.0 °F 37.1 °F 39.2 °F 93% 29.83 in 6.2 mi East 5.8 mph - N/A   Mostly Cloudy
4:50 PM 41.0 °F 36.4 °F 39.2 °F 93% 29.86 in 6.2 mi ENE 6.9 mph - N/A   Mostly Cloudy
5:20 PM 41.0 °F 36.4 °F 39.2 °F 93% 29.86 in 6.2 mi ENE 6.9 mph - N/A   Mostly Cloudy
5:50 PM 41.0 °F 35.8 °F 39.2 °F 93% 29.86 in 6.2 mi ENE 8.1 mph - N/A   Mostly Cloudy
6:20 PM 41.0 °F 36.4 °F 39.2 °F 93% 29.86 in 6.2 mi ENE 6.9 mph - N/A   Mostly Cloudy
6:50 PM 41.0 °F 36.4 °F 39.2 °F 93% 29.86 in 6.2 mi ENE 6.9 mph - N/A   Mostly Cloudy
7:20 PM 41.0 °F 36.4 °F 39.2 °F 93% 29.86 in 6.2 mi ENE 6.9 mph - N/A   Mostly Cloudy
7:50 PM 41.0 °F 36.4 °F 39.2 °F 93% 29.86 in 6.2 mi ENE 6.9 mph - N/A   Mostly Cloudy
8:20 PM 41.0 °F 35.8 °F 39.2 °F 93% 29.86 in 6.2 mi ENE 8.1 mph - N/A   Mostly Cloudy
8:50 PM 41.0 °F 35.2 °F 37.4 °F 87% 29.86 in 6.2 mi East 9.2 mph - N/A   Mostly Cloudy
9:20 PM 41.0 °F 36.4 °F 39.2 °F 93% 29.86 in 6.2 mi East 6.9 mph - N/A   Mostly Cloudy
9:50 PM 41.0 °F 35.8 °F 39.2 °F 93% 29.86 in 6.2 mi East 8.1 mph - N/A   Mostly Cloudy
10:20 PM 41.0 °F 35.8 °F 37.4 °F 87% 29.83 in 6.2 mi ENE 8.1 mph - N/A   Mostly Cloudy
10:50 PM 41.0 °F 35.8 °F 37.4 °F 87% 29.83 in 6.2 mi ENE 8.1 mph - N/A   Mostly Cloudy
11:20 PM 41.0 °F 35.2 °F 39.2 °F 93% 29.83 in 6.2 mi ENE 9.2 mph - N/A   Mostly Cloudy
11:50 PM 41.0 °F 35.8 °F 39.2 °F 93% 29.83 in 6.2 mi East 8.1 mph - N/A   Mostly Cloudy